#timestamp,LO_Frequency,Hit,StdDev 
1645275615.7,286046999.3,P
1645275635.5,286046997.0,N
1645275655.3,286046996.7,N
1645275675.2,286046996.6,N
1645275695.0,286046998.9,N
1645275695.9,286046998.9,N
1645275715.8,286047001.1,N
1645275735.6,286047000.4,N
1645275755.4,286046997.1,N
1645275775.3,286046992.5,N
1645275795.1,286046994.6,N
1645275815.8,286046992.7,N
1645275835.7,286046994.0,N
1645275855.5,286046996.2,N
1645275875.4,286046996.2,N
1645275895.2,286046993.5,N
1645275915.0,286046992.5,N
1645275915.9,286046992.5,N
1645275935.8,286046990.9,Y
1645275955.6,286046991.2,P
1645275975.5,286046989.3,P
1645275995.3,286046989.4,P
1645276015.1,286046987.3,Y
1645276035.9,286046996.9,P
1645276055.7,286046998.6,N
1645276075.5,286046999.3,N
1645276095.4,286047000.8,N
1645276115.2,286047002.7,N
1645276135.1,286047000.7,N
1645276136.0,286047000.7,N
1645276155.8,286046998.4,N
1645276175.6,286047004.1,N
1645276195.5,286047002.0,N
1645276215.3,286047002.9,N
1645276235.2,286047001.0,N
1645276255.9,286046999.3,N
1645276275.7,286047000.2,N
1645276295.6,286047005.1,N
1645276315.4,286047008.8,N
1645276335.2,286047012.2,Y
1645276355.1,286047009.2,P
1645276356.0,286047009.2,N
1645276375.8,286047004.3,N
1645276395.7,286047003.4,N
1645276415.5,286047003.5,N
1645276435.3,286047003.0,N
1645276455.2,286047007.4,N
1645276475.0,286047010.6,Y
1645276475.9,286047010.6,P
1645276495.8,286047004.5,N
1645276515.6,286047001.7,N
1645276535.4,286047000.3,N
1645276555.3,286046994.2,N
1645276575.1,286046994.2,N
1645276595.8,286046993.2,N
1645276615.7,286046992.7,N
1645276635.5,286046993.1,N
1645276655.3,286046988.5,N
1645276675.2,286046989.1,N
1645276695.0,286046984.3,N
1645276695.9,286046984.3,N
1645276715.8,286046981.9,N
1645276735.6,286046977.3,N
1645276755.4,286046977.5,N
1645276775.3,286046978.6,N
1645276795.1,286046978.7,N
1645276815.9,286046979.0,N
1645276835.7,286046981.3,N
1645276855.5,286046981.8,N
1645276875.4,286046982.7,N
1645276895.2,286046979.9,N
1645276915.0,286046978.3,N
1645276915.9,286046978.3,N
1645276935.8,286046976.1,N
1645276955.6,286046974.5,N
1645276975.5,286046972.7,N
1645276995.3,286046972.0,N
1645277015.1,286046966.0,Y
1645277035.9,286046980.7,P
1645277055.7,286046979.8,P
1645277075.5,286046981.4,P
1645277095.4,286046980.8,Y
1645277115.2,286047002.5,P
1645277135.1,286047003.8,N
1645277136.0,286047003.8,N
1645277155.8,286047000.7,N
1645277175.6,286047003.0,N
1645277195.5,286047004.4,N
1645277215.3,286047001.0,N
1645277235.1,286046998.2,N
1645277255.9,286046997.8,N
1645277275.7,286046993.5,N
1645277295.6,286046994.5,N
1645277315.4,286046991.3,N
1645277335.2,286046989.4,N
1645277355.1,286046989.5,N
1645277375.8,286046989.3,N
1645277395.7,286046989.7,N
1645277415.5,286046991.4,N
1645277435.4,286046987.3,N
1645277455.2,286046986.3,N
1645277475.0,286046983.1,N
1645277475.9,286046983.1,N
1645277495.8,286046983.6,N
1645277515.6,286046980.9,N
1645277535.4,286046979.4,N
1645277555.3,286046984.7,N
1645277575.1,286046986.3,N
1645277595.9,286046984.3,N
1645277615.7,286046991.2,N
1645277635.5,286046990.9,N
1645277655.4,286046991.0,N
1645277675.2,286046996.3,N
1645277695.1,286046992.0,N
1645277696.0,286046992.0,N
1645277715.8,286046995.7,N
1645277735.6,286046993.7,N
1645277755.5,286046995.1,N
1645277775.3,286046990.2,N
1645277795.1,286046988.8,N
1645277815.9,286046988.4,N
1645277835.7,286046980.6,Y
1645277855.6,286046997.5,P
1645277875.4,286046998.5,N
1645277895.2,286046997.8,N
1645277915.1,286046995.3,N
1645277916.0,286046995.3,N
1645277935.8,286046998.3,N
1645277955.6,286046993.9,N
1645277975.5,286046993.0,N
1645277995.3,286046991.7,N
1645278015.2,286046989.6,Y
1645278035.9,286046991.2,P
1645278055.7,286046988.8,P
1645278075.6,286046987.6,P
1645278095.4,286046983.1,Y
1645278115.3,286046986.2,P
1645278135.1,286046983.0,P
1645278155.8,286046983.7,P
1645278175.7,286046991.0,Y
1645278195.5,286047008.4,P
1645278215.4,286047006.3,N
1645278235.2,286047007.0,N
1645278255.0,286047005.5,N
1645278255.9,286047005.5,N
1645278275.8,286047002.7,N
1645278295.6,286046999.0,N
1645278315.5,286047000.3,N
1645278335.3,286047003.6,N
1645278355.1,286047003.9,N
1645278375.9,286046999.8,N
1645278395.7,286046998.0,N
1645278415.5,286046993.7,N
1645278435.4,286046992.1,N
1645278455.2,286046991.8,N
1645278475.1,286046994.3,N
1645278476.0,286046994.3,N
1645278495.8,286046994.8,N
1645278515.6,286046991.0,N
1645278535.5,286046992.9,N
1645278555.3,286046995.2,N
1645278575.1,286046992.8,N
1645278595.9,286046988.9,N
1645278615.7,286046988.5,N
1645278635.6,286046989.9,N
1645278655.4,286046987.1,N
1645278675.2,286046987.2,N
1645278695.1,286046987.3,N
1645278696.0,286046987.3,N
1645278715.8,286046985.7,N
1645278735.6,286046985.8,N
1645278755.5,286046991.6,N
1645278775.3,286046991.5,N
1645278795.2,286046988.9,N
1645278815.9,286046989.4,N
1645278835.7,286046990.6,N
1645278855.6,286046995.6,N
1645278875.4,286046999.2,N
1645278895.2,286047001.3,N
1645278915.1,286047002.7,N
1645278916.0,286047002.7,N
1645278935.8,286047001.1,N
1645278955.7,286047000.8,N
1645278975.5,286047003.8,N
1645278995.3,286047000.7,N
1645279015.2,286046995.1,N
1645279035.0,286046992.9,N
1645279035.9,286046992.9,N
1645279055.8,286046988.8,N
1645279075.6,286046990.1,N
1645279095.4,286046993.0,N
1645279115.3,286046995.3,N
1645279135.1,286046994.5,N
1645279155.8,286046994.7,N
1645279175.7,286046996.3,N
1645279195.5,286046998.3,N
